| time (UTC) | temp F | wind direction | speed knots | gust knots | rain 1hr in | rain 24hr in | rain mn in | humidity % | barometer mb |
| 20260505122221 | 32 | 50 | 2.6 | 5.2 | 0.00 | 0.21 | 0.04 | 94 | 1014.1 |
| 20260505121221 | 33 | 21 | 3.5 | 5.2 | 0.00 | 0.21 | 0.04 | 94 | 1014.0 |
| 20260505120221 | 33 | 36 | 3.5 | 5.2 | 0.01 | 0.21 | 0.04 | 94 | 1014.0 |
| 20260505115221 | 33 | 56 | 1.7 | 3.5 | 0.01 | 0.21 | 0.04 | 94 | 1013.9 |
| 20260505114226 | 33 | 39 | 3.5 | 6.1 | 0.01 | 0.21 | 0.04 | 94 | 1013.7 |
| 20260505113241 | 34 | 87 | 2.6 | 4.3 | 0.01 | 0.21 | 0.04 | 93 | 1013.9 |
| 20260505112222 | 34 | 71 | 2.6 | 5.2 | 0.01 | 0.21 | 0.03 | 93 | 1013.7 |
| 20260505111219 | 35 | 10 | 7.0 | 13.0 | 0.02 | 0.21 | 0.03 | 93 | 1013.5 |
| 20260505110216 | 36 | 281 | 6.1 | 9.6 | 0.01 | 0.20 | 0.03 | 93 | 1013.4 |
| 20260505102220 | 37 | 19 | 5.2 | 12.2 | 0.01 | 0.20 | 0.02 | 93 | 1012.9 |
| 20260505101237 | 37 | 2 | 8.7 | 13.9 | 0.02 | 0.19 | 0.02 | 93 | 1012.8 |
| 20260505100217 | 38 | 22 | 10.4 | 13.0 | 0.02 | 0.19 | 0.02 | 93 | 1012.8 |
| 20260505095217 | 38 | 32 | 13.9 | 17.4 | 0.01 | 0.19 | 0.01 | 93 | 1012.6 |
| 20260505094220 | 39 | 28 | 13.9 | 20.0 | 0.01 | 0.19 | 0.01 | 93 | 1012.4 |
| 20260505093218 | 39 | 18 | 12.2 | 18.2 | 0.01 | 0.18 | 0.01 | 94 | 1012.4 |
| 20260505092218 | 39 | 31 | 9.6 | 15.6 | 0.01 | 0.18 | 0.01 | 94 | 1012.5 |
| 20260505091218 | 39 | 27 | 12.2 | 16.5 | 0.00 | 0.17 | 0.00 | 94 | 1012.3 |
| 20260505090218 | 40 | 29 | 10.4 | 14.8 | 0.00 | 0.17 | 0.00 | 94 | 1012.3 |
| 20260505085225 | 40 | 38 | 7.8 | 13.9 | 0.00 | 0.17 | 0.00 | 95 | 1012.3 |
| 20260505084225 | 40 | 24 | 8.7 | 12.2 | 0.00 | 0.17 | 0.00 | 95 | 1012.3 |
| 20260505083226 | 40 | 22 | 7.0 | 11.3 | 0.00 | 0.17 | 0.00 | 95 | 1012.4 |
| 20260505082226 | 41 | 29 | 8.7 | 13.9 | 0.00 | 0.17 | 0.00 | 94 | 1012.3 |
| 20260505081226 | 41 | 30 | 7.8 | 13.9 | 0.00 | 0.17 | 0.00 | 94 | 1012.4 |
| 20260505080226 | 44 | 15 | 6.1 | 7.8 | 0.00 | 0.17 | 0.00 | 94 | 1012.5 |
| 20260505075235 | 45 | 346 | 2.6 | 4.3 | 0.00 | 0.17 | 0.00 | 93 | 1012.2 |
| 20260505074255 | 45 | 336 | 1.7 | 2.6 | 0.00 | 0.17 | 0.00 | 94 | 1012.2 |
| 20260505073236 | 44 | 314 | 0.9 | 1.7 | 0.00 | 0.17 | 0.00 | 93 | 1012.3 |
| 20260505072256 | 45 | 305 | 0.9 | 0.9 | 0.00 | 0.17 | 0.00 | 93 | 1012.1 |
| 20260505071236 | 45 | 277 | 0.9 | 0.9 | 0.00 | 0.17 | 0.00 | 91 | 1012.1 |
| 20260505070236 | 45 | 183 | 1.7 | 1.7 | 0.00 | 0.17 | 0.00 | 92 | 1012.1 |
| 20260505065237 | 45 | 200 | 2.6 | 2.6 | 0.00 | 0.17 | 0.00 | 91 | 1012.0 |
| 20260505064257 | 45 | 197 | 1.7 | 1.7 | 0.00 | 0.17 | 0.00 | 91 | 1012.2 |
| 20260505063317 | 45 | 170 | 2.6 | 2.6 | 0.00 | 0.17 | 0.00 | 90 | 1012.1 |
| 20260505062257 | 45 | 187 | 2.6 | 2.6 | 0.00 | 0.17 | 0.00 | 90 | 1012.1 |
| 20260505061230 | 45 | 179 | 2.6 | 3.5 | 0.00 | 0.17 | 0.00 | 90 | 1012.1 |
| 20260505060221 | 45 | 195 | 3.5 | 4.3 | 0.00 | 0.17 | 0.00 | 89 | 1012.1 |
| 20260505055238 | 45 | 179 | 2.6 | 3.5 | 0.00 | 0.17 | 0.17 | 90 | 1012.1 |
| 20260505054238 | 45 | 211 | 2.6 | 3.5 | 0.00 | 0.17 | 0.17 | 90 | 1012.2 |
| 20260505053225 | 45 | 185 | 3.5 | 3.5 | 0.00 | 0.17 | 0.17 | 90 | 1012.0 |
| 20260505052241 | 44 | 185 | 2.6 | 3.5 | 0.00 | 0.17 | 0.17 | 91 | 1012.0 |
| 20260505051229 | 44 | 196 | 2.6 | 3.5 | 0.00 | 0.17 | 0.17 | 90 | 1012.2 |
| 20260505050238 | 44 | 194 | 1.7 | 2.6 | 0.00 | 0.17 | 0.17 | 91 | 1012.2 |
| 20260505041232 | 44 | 291 | 0.9 | 1.7 | 0.05 | 0.17 | 0.17 | 92 | 1012.6 |
| 20260505040232 | 44 | 233 | 0.9 | 1.7 | 0.07 | 0.17 | 0.17 | 89 | 1012.6 |
| 20260505035223 | 44 | 204 | 2.6 | 3.5 | 0.10 | 0.17 | 0.17 | 88 | 1012.5 |
| 20260505034217 | 44 | 190 | 3.5 | 4.3 | 0.14 | 0.17 | 0.17 | 91 | 1012.5 |
| 20260505033237 | 45 | 209 | 2.6 | 2.6 | 0.15 | 0.17 | 0.17 | 92 | 1012.7 |
| 20260505032217 | 45 | 187 | 1.7 | 1.7 | 0.15 | 0.15 | 0.15 | 92 | 1012.6 |
| 20260505031218 | 45 | 259 | 0.9 | 0.9 | 0.12 | 0.13 | 0.13 | 91 | 1012.5 |
| 20260505030218 | 46 | 271 | 3.5 | 4.3 | 0.10 | 0.10 | 0.10 | 89 | 1012.5 |
| 20260505025218 | 47 | 254 | 4.3 | 7.8 | 0.06 | 0.07 | 0.07 | 88 | 1012.2 |
| 20260505024218 | 48 | 346 | 1.7 | 1.7 | 0.03 | 0.03 | 0.03 | 87 | 1011.9 |
| 20260505023218 | 48 | 333 | 1.7 | 3.5 | 0.01 | 0.01 | 0.01 | 85 | 1011.6 |
| 20260505022218 | 48 | 9 | 1.7 | 2.6 | 0.00 | 0.01 | 0.01 | 83 | 1011.4 |
| 20260505021218 | 48 | 22 | 3.5 | 5.2 | 0.00 | 0.01 | 0.01 | 81 | 1011.4 |
| 20260505020218 | 48 | 12 | 4.3 | 6.1 | 0.00 | 0.01 | 0.01 | 78 | 1011.3 |
| 20260505015218 | 50 | 7 | 2.6 | 4.3 | 0.00 | 0.01 | 0.01 | 78 | 1011.5 |
| 20260505014219 | 52 | 5 | 1.7 | 3.5 | 0.00 | 0.01 | 0.01 | 69 | 1011.4 |
| 20260505013219 | 53 | 320 | 1.7 | 1.7 | 0.00 | 0.01 | 0.01 | 60 | 1011.0 |
| 20260505012219 | 53 | 249 | 2.6 | 2.6 | 0.00 | 0.01 | 0.01 | 60 | 1011.1 |
| 20260505011219 | 54 | 159 | 5.2 | 7.0 | 0.00 | 0.01 | 0.01 | 58 | 1011.0 |
| 20260505010219 | 54 | 176 | 3.5 | 7.0 | 0.00 | 0.01 | 0.01 | 55 | 1010.9 |
| 20260505005219 | 55 | 127 | 2.6 | 4.3 | 0.00 | 0.01 | 0.01 | 51 | 1010.7 |
| 20260505004220 | 55 | 36 | 0.9 | 0.9 | 0.00 | 0.01 | 0.01 | 51 | 1010.7 |
| 20260505003220 | 56 | 8 | 0.9 | 0.9 | 0.00 | 0.01 | 0.01 | 53 | 1010.6 |
| 20260505002220 | 56 | 190 | 1.7 | 1.7 | 0.00 | 0.01 | 0.01 | 51 | 1010.7 |
| 20260505001220 | 56 | 178 | 0.9 | 1.7 | 0.00 | 0.01 | 0.01 | 53 | 1010.5 |
| 20260505000220 | 55 | 182 | 1.7 | 1.7 | 0.00 | 0.01 | 0.01 | 54 | 1010.5 |
| 20260504235221 | 55 | 48 | 1.7 | 1.7 | 0.00 | 0.01 | 0.01 | 53 | 1010.4 |
| 20260504234220 | 55 | 14 | 1.7 | 1.7 | 0.00 | 0.01 | 0.01 | 54 | 1010.4 |
| 20260504233221 | 55 | 253 | 0.9 | 1.7 | 0.00 | 0.01 | 0.01 | 54 | 1010.3 |
| 20260504232226 | 55 | 231 | 0.9 | 1.7 | 0.01 | 0.01 | 0.01 | 55 | 1010.4 |
| 20260504231221 | 55 | 211 | 1.7 | 2.6 | 0.01 | 0.01 | 0.01 | 56 | 1010.5 |
| 20260504230241 | 55 | 267 | 1.7 | 1.7 | 0.01 | 0.01 | 0.01 | 60 | 1010.4 |
| 20260504225242 | 55 | 203 | 2.6 | 3.5 | 0.01 | 0.01 | 0.01 | 58 | 1010.5 |
| 20260504224222 | 55 | 296 | 1.7 | 2.6 | 0.01 | 0.01 | 0.01 | 57 | 1010.9 |
| 20260504223236 | 56 | 325 | 2.6 | 3.5 | 0.00 | 0.00 | 0.00 | 56 | 1010.8 |
| 20260504222242 | 57 | 316 | 1.7 | 2.6 | 0.00 | 0.00 | 0.00 | 50 | 1010.7 |
| 20260504221222 | 57 | 24 | 2.6 | 2.6 | 0.00 | 0.00 | 0.00 | 49 | 1010.4 |
| 20260504220222 | 58 | 35 | 1.7 | 2.6 | 0.00 | 0.00 | 0.00 | 48 | 1010.2 |
| 20260504215222 | 59 | 22 | 1.7 | 4.3 | 0.00 | 0.00 | 0.00 | 43 | 1009.8 |
| 20260504214238 | 60 | 23 | 1.7 | 3.5 | 0.00 | 0.00 | 0.00 | 40 | 1009.4 |
| 20260504213217 | 62 | 11 | 3.5 | 6.1 | 0.00 | 0.00 | 0.00 | 38 | 1009.1 |
| 20260504212217 | 63 | 6 | 3.5 | 5.2 | 0.00 | 0.00 | 0.00 | 37 | 1009.2 |
| 20260504211217 | 65 | 89 | 1.7 | 4.3 | 0.00 | 0.00 | 0.00 | 33 | 1008.8 |
| 20260504210237 | 66 | 168 | 4.3 | 7.0 | 0.00 | 0.00 | 0.00 | 31 | 1008.7 |
| 20260504205217 | 65 | 13 | 1.7 | 3.5 | 0.00 | 0.00 | 0.00 | 31 | 1008.9 |
| 20260504204217 | 65 | 88 | 3.5 | 5.2 | 0.00 | 0.00 | 0.00 | 33 | 1009.0 |
| 20260504203218 | 65 | 177 | 4.3 | 6.1 | 0.00 | 0.00 | 0.00 | 33 | 1009.2 |
| 20260504202218 | 63 | 158 | 3.5 | 7.0 | 0.00 | 0.00 | 0.00 | 37 | 1009.5 |
| 20260504201218 | 61 | 139 | 3.5 | 6.1 | 0.00 | 0.00 | 0.00 | 37 | 1009.8 |
| 20260504200219 | 60 | 166 | 3.5 | 5.2 | 0.00 | 0.00 | 0.00 | 38 | 1010.1 |
| 20260504195218 | 60 | 225 | 3.5 | 6.1 | 0.00 | 0.00 | 0.00 | 40 | 1010.2 |
| 20260504194218 | 60 | 185 | 3.5 | 6.1 | 0.00 | 0.00 | 0.00 | 40 | 1010.1 |
| 20260504193219 | 61 | 205 | 5.2 | 7.8 | 0.00 | 0.00 | 0.00 | 39 | 1009.9 |
| 20260504192219 | 65 | 178 | 4.3 | 7.0 | 0.00 | 0.00 | 0.00 | 33 | 1009.6 |
| 20260504191219 | 66 | 207 | 3.5 | 4.3 | 0.00 | 0.00 | 0.00 | 26 | 1009.2 |
| 20260504190219 | 67 | 311 | 1.7 | 3.5 | 0.00 | 0.00 | 0.00 | 26 | 1008.8 |
| 20260504185220 | 68 | 289 | 1.7 | 4.3 | 0.00 | 0.00 | 0.00 | 25 | 1008.7 |
| 20260504184219 | 70 | 289 | 2.6 | 5.2 | 0.00 | 0.00 | 0.00 | 25 | 1008.7 |
| 20260504183240 | 70 | 292 | 2.6 | 5.2 | 0.00 | 0.00 | 0.00 | 23 | 1008.8 |
| 20260504182220 | 69 | 301 | 2.6 | 3.5 | 0.00 | 0.00 | 0.00 | 23 | 1008.8 |
| 20260504181300 | 68 | 307 | 3.5 | 5.2 | 0.00 | 0.00 | 0.00 | 25 | 1009.0 |
| 20260504180300 | 68 | 352 | 1.7 | 3.5 | 0.00 | 0.00 | 0.00 | 25 | 1009.1 |
| 20260504175217 | 68 | 292 | 3.5 | 7.0 | 0.00 | 0.00 | 0.00 | 27 | 1009.2 |
| 20260504174220 | 67 | 292 | 4.3 | 7.0 | 0.00 | 0.00 | 0.00 | 28 | 1009.5 |
| 20260504173220 | 66 | 299 | 2.6 | 5.2 | 0.00 | 0.00 | 0.00 | 29 | 1009.7 |
| 20260504172220 | 66 | 331 | 3.5 | 5.2 | 0.00 | 0.00 | 0.00 | 29 | 1009.8 |
| 20260504171221 | 65 | 258 | 1.7 | 4.3 | 0.00 | 0.00 | 0.00 | 29 | 1009.8 |
| 20260504170218 | 65 | 295 | 2.6 | 6.1 | 0.00 | 0.00 | 0.00 | 29 | 1009.9 |
| 20260504160228 | 62 | 262 | 2.6 | 3.5 | 0.00 | 0.00 | 0.00 | 31 | 1010.6 |
| 20260504150217 | 60 | 268 | 1.7 | 2.6 | 0.00 | 0.00 | 0.00 | 31 | 1010.6 |
| 20260504141218 | 59 | 305 | 2.6 | 4.3 | 0.00 | 0.00 | 0.00 | 31 | 1010.9 |
| 20260504140218 | 59 | 295 | 2.6 | 2.6 | 0.00 | 0.00 | 0.00 | 31 | 1010.9 |
| 20260504130216 | 54 | 284 | 1.7 | 1.7 | 0.00 | 0.00 | 0.00 | 28 | 1010.9 |